Wind_Speed
6 7 11 15 16 18 20 24 27 26 25 24 23 24 27 28 28 28 28 27 26 24 19 15 9 4 5 6 15 28 29 22 15 22 15 17 16 20 15 19 24 28 38
9 9 9 12 16 17 16 22 25 27 28 26 24 25 26 26 27 29 29 30 31 33 35 31 27 18 13 2 7 2 7 20 15 17 12 10 10 13 15 18 24 30 24
7 11 11 11 14 16 18 21 23 24 25 27 24 26 30 30 29 29 28 29 31 33 35 38 37 34 29 21 19 16 3 3 7 15 21 18 16 14 13 15 19 21 26
8 9 10 11 12 13 16 19 19 22 24 25 25 25 29 32 32 31 30 30 30 31 32 36 40 38 35 33 33 33 27 26 24 23 25 25 20 21 20 17 15 22 26
7 7 8 10 10 11 13 14 14 16 18 20 23 22 25 31 32 32 32 32 32 30 31 33 36 36 36 34 30 30 29 28 27 28 28 22 22 25 24 18 12 9 17
5 7 8 9 10 12 12 13 14 14 15 17 22 24 23 26 28 29 30 32 31 33 34 32 31 34 34 35 37 34 30 29 31 30 30 26 21 22 17 14 13 6 5
7 7 8 8 10 11 10 11 13 15 16 18 20 23 24 22 23 24 25 28 31 31 33 33 32 30 31 30 31 32 34 34 34 30 31 29 25 20 16 15 14 12 15
8 8 7 7 8 8 9 11 13 14 17 19 22 23 25 24 19 20 21 22 26 29 29 31 30 30 29 28 28 28 29 31 32 30 28 25 23 20 19 17 13 10 9
8 7 7 7 7 8 10 10 10 12 15 17 21 24 25 25 25 22 19 21 23 25 27 27 28 28 26 26 25 27 27 28 26 23 21 19 18 18 18 13 16 12 10
8 8 7 8 8 9 10 11 12 12 12 15 18 19 21 22 23 24 23 22 24 24 24 26 27 27 24 24 25 25 25 26 22 20 20 19 19 18 18 17 16 18 15
8 7 7 6 7 8 10 10 11 15 17 17 18 20 21 22 21 23 24 23 24 25 25 26 28 25 27 27 26 26 24 21 22 21 20 19 19 19 19 17 18 16 16
8 6 5 5 5 7 7 10 11 10 12 13 12 14 16 18 19 21 22 21 19 23 28 28 24 22 23 25 26 26 22 20 20 22 23 24 24 23 21 17 15 11 12
7 5 3 3 4 5 6 5 4 6 7 6 5 7 12 16 18 19 20 19 18 19 20 21 21 20 21 23 23 25 24 22 22 22 23 23 22 20 17 15 15 12 9
7 5 3 3 4 5 5 5 3 3 3 3 5 5 8 14 17 19 20 19 15 15 17 18 18 17 19 20 22 23 25 23 21 20 19 19 18 19 19 20 20 18 15
8 7 7 4 4 5 3 5 5 5 5 6 4 7 9 13 17 18 17 17 17 15 14 15 17 17 18 19 20 20 21 21 20 18 18 21 20 20 21 20 19 19 18
11 9 7 5 6 4 8 6 6 8 7 6 6 8 13 14 15 18 14 14 17 15 15 14 16 17 17 16 16 16 19 20 19 20 18 20 22 22 22 20 20 22 22
10 10 13 11 7 7 10 6 10 10 10 10 11 11 12 14 15 16 16 12 12 11 12 13 14 14 14 14 14 16 19 20 17 19 19 20 22 21 21 21 22 23 25
15 14 12 11 13 12 10 11 9 7 7 10 12 13 12 14 18 17 16 14 15 13 12 13 14 15 15 15 16 16 18 20 18 20 19 19 21 19 21 21 22 24 25
16 17 18 14 13 11 9 6 5 4 5 6 7 11 8 11 16 14 12 13 16 15 15 15 15 16 17 17 17 17 17 15 15 17 19 20 21 20 21 21 22 22 23
14 13 10 9 10 7 5 4 4 5 5 6 7 8 10 16 22 12 11 14 15 16 18 16 15 16 16 17 18 19 19 17 16 16 16 18 21 20 22 21 22 23 24
9 9 12 11 7 5 6 6 6 7 7 8 11 12 13 16 16 11 14 16 16 19 19 17 17 17 17 17 17 19 21 19 14 16 20 18 13 15 19 20 20 22 23
9 10 8 6 8 9 8 7 8 8 9 8 8 11 12 15 15 15 16 17 19 21 20 21 19 16 17 18 20 22 21 18 14 19 23 23 22 21 16 17 21 21 21
11 10 6 5 8 11 10 9 7 7 8 10 14 16 15 15 17 18 19 20 21 22 24 20 20 19 18 20 22 22 21 21 23 23 27 27 25 22 19 18 20 20 22
9 10 9 10 10 10 7 8 7 10 13 13 12 14 15 17 19 19 18 19 22 23 21 20 21 19 20 24 24 23 21 22 23 24 25 25 23 20 16 14 16 20 19
11 10 10 8 5 4 5 8 10 12 13 15 15 17 18 18 18 16 18 20 21 21 21 23 20 21 23 24 23 20 23 24 24 25 23 21 18 12 10 15 17 17 17
6 6 6 6 7 9 10 11 12 14 17 18 18 18 18 18 15 17 18 19 20 21 23 22 22 22 22 21 20 21 23 23 21 19 19 18 16 12 9 12 15 16 18
Wind_Direction
46 45 45 43 40 38 37 36 29 26 28 25 29 34 32 38 37 45 44 43 44 43 42 38 29 43 262 213 243 241 251 275 250 217 179 197 213 217 228 203 227 235 236
55 44 42 42 38 36 35 38 31 29 29 28 31 38 40 35 39 40 44 48 49 50 49 52 50 58 66 115 235 146 246 237 230 150 136 141 182 209 173 178 185 199 193
54 43 40 42 33 32 36 39 29 26 32 29 34 44 47 40 39 42 41 42 48 50 51 46 45 56 65 71 74 71 220 118 151 138 101 104 112 128 134 107 116 143 167
55 33 45 65 47 31 38 43 38 23 25 27 32 41 51 47 45 45 48 48 46 49 53 52 43 41 49 68 76 75 81 98 112 121 110 94 99 107 114 96 82 113 124
87 80 59 41 60 46 43 51 44 42 34 29 33 38 50 52 40 45 46 48 53 51 53 57 56 40 50 55 59 71 81 83 84 87 91 87 66 66 81 93 102 90 92
91 64 68 58 54 51 48 46 49 45 44 41 39 39 43 54 45 41 44 47 48 50 52 52 54 56 50 57 64 69 69 75 77 73 73 68 59 60 57 55 54 31 73
105 89 81 77 71 62 47 55 53 48 45 48 50 46 42 44 55 37 39 44 45 46 49 49 48 48 53 53 58 63 66 64 66 66 64 58 58 56 57 67 76 41 46
128 110 99 91 85 87 78 53 49 50 50 48 46 49 49 45 38 53 36 40 43 45 46 47 46 47 46 47 50 53 56 57 55 56 56 54 50 49 52 52 60 61 29
145 135 125 114 104 89 76 69 61 50 50 51 48 43 39 41 43 41 45 44 43 42 42 46 44 46 46 46 49 53 51 52 50 52 54 53 49 49 47 53 48 50 51
146 131 115 100 87 77 68 64 58 55 55 46 42 40 37 37 36 38 39 43 41 39 39 40 41 41 42 44 43 45 46 42 41 43 44 44 41 43 41 42 39 37 44
151 137 121 101 84 72 65 54 51 51 51 44 28 21 24 28 32 34 33 33 37 35 36 37 38 29 31 35 39 41 42 39 36 34 35 37 36 38 38 38 39 31 34
162 149 132 106 87 69 59 48 45 44 42 40 29 12 7 16 23 26 28 30 36 37 35 33 33 26 23 28 27 32 34 35 32 29 26 25 24 25 27 33 38 54 60
160 155 148 116 88 65 49 72 86 46 42 53 45 21 349 7 18 24 27 29 45 43 40 23 24 21 20 18 22 19 21 27 27 29 22 19 15 14 15 21 26 39 56
163 168 142 107 81 59 11 346 19 42 76 19 16 21 350 1 11 16 21 30 46 50 38 28 12 18 17 16 14 13 13 18 22 26 19 8 10 11 20 21 17 16 11
173 177 190 202 154 246 251 286 345 1 1 1 352 349 356 5 11 10 14 30 40 43 35 12 7 14 15 10 8 6 3 4 13 13 11 0 4 5 12 11 7 4 3
186 202 206 199 199 236 306 304 316 339 348 356 356 353 2 7 13 21 27 26 33 30 18 359 1 3 8 3 358 351 350 355 1 0 5 355 357 0 1 4 3 358 355
194 200 222 210 219 227 215 258 306 311 329 346 1 359 358 5 12 15 23 26 14 355 359 355 350 346 352 354 350 341 339 342 343 350 352 348 351 355 354 357 356 352 350
198 205 218 198 210 224 223 233 235 263 309 329 335 342 341 344 1 357 0 4 344 348 339 338 336 336 331 327 325 329 335 337 336 335 339 337 341 343 345 351 350 347 346
222 221 232 242 244 243 252 263 269 293 303 321 318 322 320 337 329 337 344 332 327 329 322 323 323 319 321 323 324 321 317 322 336 330 327 326 331 328 334 342 341 340 341
223 227 224 238 258 260 260 264 288 307 303 304 299 289 287 298 318 336 318 319 317 314 315 317 314 314 315 315 315 314 310 306 306 315 325 326 320 316 323 329 331 332 335
233 243 239 213 249 265 251 258 260 270 281 286 291 297 302 313 327 311 311 311 308 308 310 304 303 304 306 303 302 300 302 308 307 312 299 292 306 325 319 317 316 323 324
226 263 276 237 219 251 259 243 245 268 281 283 277 300 312 316 309 303 306 300 302 302 300 300 303 304 302 302 296 300 305 307 300 290 291 294 291 288 293 305 311 314 319
212 223 240 239 230 242 261 275 275 271 255 260 279 289 295 299 299 299 298 297 295 297 301 304 308 310 306 301 302 302 301 300 293 296 300 304 307 307 294 290 308 304 316
211 226 224 222 227 249 246 254 255 272 279 288 290 290 292 290 292 296 295 292 294 300 306 316 318 314 306 306 308 312 306 302 306 305 304 306 305 307 303 294 300 305 306
218 224 230 241 253 264 238 265 267 273 278 287 289 286 288 287 291 291 289 296 301 313 321 316 316 311 309 311 314 312 307 307 306 307 311 307 305 308 318 317 305 292 302
210 216 228 234 242 252 256 258 266 272 280 287 287 287 289 293 294 295 302 303 316 318 315 318 315 313 313 314 313 305 308 309 314 316 311 309 300 289 277 310 303 305 310
Height
1497 1496 1496 1493 1491 1488 1484 1481 1478 1473 1467 1463 1458 1452 1448 1442 1436 1429 1424 1417 1412 1407 1401 1396 1394 1390 1389 1387 1387 1389 1391 1392 1388 1388 1387 1389 1393 1398 1400 1407 1406 1407 1407
1498 1497 1496 1494 1492 1490 1487 1484 1479 1475 1471 1468 1462 1456 1451 1447 1441 1435 1429 1423 1417 1411 1406 1400 1396 1392 1386 1387 1384 1383 1384 1387 1386 1385 1386 1386 1393 1389 1401 1401 1402 1402 1399
1499 1498 1496 1494 1494 1491 1490 1485 1482 1478 1476 1473 1467 1461 1455 1451 1446 1440 1434 1430 1422 1418 1412 1409 1403 1396 1390 1387 1384 1381 1379 1383 1381 1380 1383 1391 1395 1399 1401 1403 1404 1395 1399
1498 1499 1498 1497 1495 1494 1492 1489 1486 1482 1478 1476 1471 1466 1460 1456 1451 1446 1441 1435 1430 1425 1421 1414 1411 1406 1399 1392 1388 1388 1388 1386 1388 1390 1390 1394 1405 1405 1397 1403 1413 1403 1398
1500 1500 1499 1497 1496 1496 1493 1491 1489 1486 1483 1480 1475 1471 1464 1459 1456 1452 1447 1442 1436 1435 1428 1423 1419 1418 1410 1403 1399 1395 1396 1395 1398 1395 1395 1403 1404 1393 1396 1404 1409 1408 1396
1502 1500 1500 1499 1498 1497 1495 1493 1491 1488 1485 1482 1478 1474 1469 1463 1461 1458 1455 1449 1446 1441 1434 1431 1428 1422 1419 1415 1412 1412 1407 1409 1407 1403 1401 1406 1408 1405 1403 1405 1409 1410 1407
1502 1502 1501 1500 1500 1499 1497 1495 1492 1490 1487 1484 1481 1477 1473 1470 1465 1464 1460 1456 1452 1447 1442 1437 1433 1429 1425 1424 1421 1418 1419 1417 1412 1411 1408 1411 1411 1414 1413 1412 1409 1414 1410
1501 1502 1501 1501 1500 1499 1498 1496 1494 1492 1489 1487 1484 1481 1479 1475 1472 1468 1465 1461 1457 1453 1449 1444 1441 1437 1433 1430 1427 1423 1421 1418 1414 1414 1415 1418 1420 1419 1416 1414 1416 1416 1417
1500 1500 1500 1500 1500 1499 1498 1497 1496 1494 1493 1491 1488 1485 1482 1479 1476 1472 1468 1464 1461 1458 1454 1450 1448 1443 1440 1437 1433 1430 1428 1425 1424 1424 1425 1425 1424 1421 1422 1421 1420 1421 1418
1500 1500 1501 1501 1501 1500 1500 1498 1498 1496 1495 1494 1492 1490 1487 1483 1480 1476 1472 1468 1465 1462 1460 1456 1453 1449 1446 1442 1439 1436 1432 1432 1431 1430 1429 1427 1426 1426 1425 1425 1427 1424 1420
1500 1501 1502 1502 1502 1501 1501 1500 1500 1499 1498 1496 1494 1492 1489 1486 1483 1480 1476 1472 1468 1466 1463 1460 1457 1456 1452 1448 1444 1441 1439 1439 1437 1435 1434 1433 1432 1431 1430 1427 1426 1428 1424
1501 1502 1502 1502 1502 1502 1501 1502 1502 1501 1500 1499 1498 1495 1492 1490 1486 1482 1479 1476 1473 1470 1467 1465 1464 1462 1458 1454 1449 1446 1445 1443 1441 1438 1436 1434 1433 1431 1432 1431 1432 1433 1431
1501 1502 1503 1503 1503 1503 1503 1503 1502 1502 1501 1500 1499 1497 1493 1490 1488 1485 1482 1478 1475 1473 1472 1472 1469 1466 1463 1458 1455 1452 1450 1447 1445 1443 1441 1439 1438 1437 1438 1435 1431 1427 1424
1502 1503 1503 1504 1504 1505 1504 1502 1502 1501 1500 1499 1497 1496 1493 1491 1488 1485 1483 1480 1478 1476 1475 1473 1472 1469 1467 1464 1460 1457 1455 1453 1450 1449 1447 1445 1443 1441 1437 1432 1428 1427 1426
1501 1502 1503 1503 1505 1503 1503 1502 1501 1500 1499 1498 1496 1495 1493 1491 1489 1486 1484 1481 1480 1478 1477 1476 1474 1471 1468 1466 1463 1461 1458 1456 1453 1451 1449 1445 1442 1439 1435 1432 1432 1430 1427
1499 1500 1501 1502 1503 1503 1501 1501 1501 1500 1499 1497 1496 1495 1493 1491 1490 1487 1485 1483 1481 1479 1478 1477 1474 1471 1469 1468 1466 1463 1460 1458 1455 1452 1450 1446 1441 1438 1435 1432 1429 1425 1422
1497 1499 1499 1500 1501 1501 1501 1500 1498 1498 1497 1497 1496 1495 1493 1492 1490 1488 1486 1483 1482 1480 1478 1476 1474 1472 1470 1468 1466 1462 1459 1457 1454 1451 1448 1444 1441 1438 1435 1432 1429 1425 1421
1494 1496 1497 1498 1498 1498 1497 1497 1497 1496 1495 1494 1494 1493 1491 1490 1488 1486 1485 1482 1481 1478 1476 1474 1472 1469 1467 1464 1462 1460 1458 1455 1452 1449 1446 1443 1440 1437 1435 1433 1430 1427 1423
1491 1493 1494 1494 1495 1494 1494 1494 1494 1494 1494 1494 1493 1491 1489 1487 1487 1486 1483 1482 1479 1476 1474 1472 1469 1466 1464 1461 1459 1457 1454 1452 1450 1447 1444 1441 1438 1436 1434 1431 1429 1426 1424
1488 1489 1491 1491 1491 1492 1492 1492 1492 1492 1492 1492 1492 1491 1489 1487 1485 1483 1482 1479 1476 1473 1471 1469 1466 1464 1461 1459 1456 1453 1450 1447 1445 1443 1441 1439 1436 1433 1430 1428 1426 1423 1420
1485 1487 1488 1489 1490 1490 1491 1491 1491 1490 1490 1490 1488 1487 1485 1484 1482 1480 1478 1476 1473 1470 1467 1465 1462 1460 1457 1455 1452 1448 1446 1443 1441 1439 1435 1434 1431 1430 1428 1426 1424 1421 1418
1484 1484 1485 1486 1488 1488 1488 1488 1488 1488 1487 1487 1486 1483 1481 1480 1478 1476 1474 1472 1469 1465 1463 1460 1457 1455 1452 1449 1446 1443 1441 1438 1436 1432 1429 1429 1428 1426 1424 1422 1421 1419 1416
1482 1483 1483 1484 1485 1485 1485 1485 1485 1485 1484 1482 1482 1480 1478 1476 1474 1472 1469 1467 1463 1461 1457 1454 1451 1449 1446 1443 1441 1438 1435 1432 1428 1427 1424 1422 1420 1418 1417 1416 1416 1413 1412
1480 1480 1481 1481 1481 1482 1483 1483 1482 1481 1480 1479 1478 1476 1474 1472 1469 1467 1464 1461 1458 1455 1452 1449 1447 1444 1440 1437 1434 1432 1429 1425 1423 1421 1418 1416 1414 1412 1411 1410 1410 1409 1407
1476 1478 1478 1479 1480 1480 1480 1480 1479 1478 1476 1475 1473 1471 1469 1466 1464 1462 1458 1456 1452 1449 1448 1445 1441 1438 1435 1432 1429 1426 1422 1420 1418 1415 1412 1410 1409 1408 1407 1407 1406 1404 1403
1475 1476 1476 1477 1477 1477 1476 1476 1475 1473 1471 1470 1468 1465 1463 1461 1458 1455 1454 1450 1448 1446 1443 1439 1436 1433 1430 1427 1424 1420 1418 1415 1412 1410 1407 1405 1404 1403 1403 1402 1401 1400 1399